Time,TemperatureF,DewpointF,PressureIn,WindDirection,WindDirectionDegrees,WindSpeedMPH,WindSpeedGustMPH,Humidity,HourlyPrecipIn,Conditions,Clouds,dailyrainin,SolarRadiationWatts/m^2,SoftwareType,DateUTC
2013-02-12 00:04:00,45.4,44.0,30.22,North,-999,0.0,0.0,93,0.00,,,0.00,0,weatherlink.com 1.10,2013-02-12 08:04:00,
2013-02-12 00:19:00,45.4,44.0,30.23,North,-999,0.0,0.0,93,0.00,,,0.00,0,weatherlink.com 1.10,2013-02-12 08:19:00,
2013-02-12 00:34:00,45.3,43.0,30.23,North,-999,0.0,0.0,93,0.00,,,0.00,0,weatherlink.com 1.10,2013-02-12 08:34:00,
2013-02-12 00:49:00,45.2,43.0,30.23,North,-999,0.0,0.0,93,0.00,,,0.00,0,weatherlink.com 1.10,2013-02-12 08:49:00,
2013-02-12 01:04:00,45.3,43.0,30.22,North,-999,0.0,0.0,93,0.00,,,0.00,0,weatherlink.com 1.10,2013-02-12 09:04:00,
2013-02-12 01:19:00,45.1,43.0,30.23,North,360,0.0,0.0,93,0.00,,,0.00,0,weatherlink.com 1.10,2013-02-12 09:19:00,
2013-02-12 01:34:00,45.1,43.0,30.23,North,360,0.0,0.0,93,0.00,,,0.00,0,weatherlink.com 1.10,2013-02-12 09:34:00,
2013-02-12 01:49:00,44.9,43.0,30.23,North,360,0.0,0.0,93,0.00,,,0.00,0,weatherlink.com 1.10,2013-02-12 09:49:00,
2013-02-12 02:04:00,44.7,43.0,30.23,North,360,0.0,0.0,93,0.00,,,0.00,0,weatherlink.com 1.10,2013-02-12 10:04:00,
2013-02-12 02:19:00,44.5,43.0,30.24,North,-999,0.0,0.0,93,0.00,,,0.00,0,weatherlink.com 1.10,2013-02-12 10:19:00,
2013-02-12 02:34:00,44.2,42.0,30.23,North,360,0.0,0.0,93,0.00,,,0.00,0,weatherlink.com 1.10,2013-02-12 10:34:00,
2013-02-12 02:49:00,43.9,42.0,30.24,North,-999,0.0,0.0,93,0.00,,,0.00,0,weatherlink.com 1.10,2013-02-12 10:49:00,
2013-02-12 03:04:00,43.4,42.0,30.24,North,-999,0.0,0.0,93,0.00,,,0.00,0,weatherlink.com 1.10,2013-02-12 11:04:00,
2013-02-12 03:19:00,43.3,42.0,30.24,North,360,0.0,0.0,94,0.00,,,0.00,0,weatherlink.com 1.10,2013-02-12 11:19:00,
2013-02-12 03:34:00,43.3,42.0,30.24,North,-999,0.0,0.0,94,0.00,,,0.00,0,weatherlink.com 1.10,2013-02-12 11:34:00,
2013-02-12 03:49:00,43.3,42.0,30.24,North,-999,0.0,0.0,94,0.00,,,0.00,0,weatherlink.com 1.10,2013-02-12 11:49:00,
2013-02-12 04:04:00,43.5,42.0,30.25,North,-999,0.0,0.0,94,0.00,,,0.00,0,weatherlink.com 1.10,2013-02-12 12:04:00,
2013-02-12 04:19:00,43.3,42.0,30.25,North,-999,0.0,0.0,94,0.00,,,0.00,0,weatherlink.com 1.10,2013-02-12 12:19:00,
2013-02-12 04:34:00,43.0,41.0,30.25,North,-999,0.0,0.0,94,0.00,,,0.00,0,weatherlink.com 1.10,2013-02-12 12:34:00,
2013-02-12 04:49:00,43.3,42.0,30.25,North,-999,0.0,0.0,95,0.00,,,0.00,0,weatherlink.com 1.10,2013-02-12 12:49:00,
2013-02-12 05:04:00,43.4,42.0,30.25,North,-999,0.0,0.0,95,0.00,,,0.00,0,weatherlink.com 1.10,2013-02-12 13:04:00,
2013-02-12 05:19:00,43.7,42.0,30.26,North,360,0.0,0.0,95,0.00,,,0.00,0,weatherlink.com 1.10,2013-02-12 13:19:00,
2013-02-12 05:34:00,43.8,43.0,30.26,North,-999,0.0,0.0,95,0.00,,,0.00,0,weatherlink.com 1.10,2013-02-12 13:34:00,
2013-02-12 05:49:00,43.8,43.0,30.27,North,-999,0.0,0.0,95,0.00,,,0.00,0,weatherlink.com 1.10,2013-02-12 13:49:00,
2013-02-12 06:04:00,43.6,42.0,30.27,North,360,0.0,0.0,95,0.00,,,0.00,0,weatherlink.com 1.10,2013-02-12 14:04:00,
2013-02-12 06:19:00,43.6,42.0,30.28,North,360,0.0,0.0,95,0.00,,,0.00,0,weatherlink.com 1.10,2013-02-12 14:19:00,
2013-02-12 06:34:00,43.6,42.0,30.29,North,360,0.0,0.0,95,0.00,,,0.00,0,weatherlink.com 1.10,2013-02-12 14:34:00,
2013-02-12 06:49:00,43.4,42.0,30.29,North,360,0.0,0.0,95,0.00,,,0.00,0,weatherlink.com 1.10,2013-02-12 14:49:00,
2013-02-12 07:05:00,43.3,42.0,30.30,North,360,0.0,0.0,95,0.00,,,0.00,0,weatherlink.com 1.10,2013-02-12 15:05:00,
2013-02-12 07:19:00,43.2,42.0,30.30,North,360,0.0,0.0,95,0.00,,,0.00,18,weatherlink.com 1.10,2013-02-12 15:19:00,
2013-02-12 07:35:00,43.2,42.0,30.31,North,360,0.0,0.0,96,0.00,,,0.00,35,weatherlink.com 1.10,2013-02-12 15:35:00,
2013-02-12 07:49:00,43.3,42.0,30.32,North,-999,0.0,0.0,96,0.00,,,0.00,30,weatherlink.com 1.10,2013-02-12 15:49:00,
2013-02-12 08:05:00,43.5,43.0,30.32,North,-999,0.0,0.0,96,0.00,,,0.00,49,weatherlink.com 1.10,2013-02-12 16:05:00,
2013-02-12 08:20:00,43.9,43.0,30.32,North,-999,0.0,0.0,96,0.00,,,0.00,47,weatherlink.com 1.10,2013-02-12 16:20:00,
2013-02-12 08:35:00,44.1,43.0,30.33,North,-999,0.0,0.0,96,0.00,,,0.00,88,weatherlink.com 1.10,2013-02-12 16:35:00,
2013-02-12 08:50:00,44.7,44.0,30.34,North,-999,0.0,0.0,96,0.00,,,0.00,116,weatherlink.com 1.10,2013-02-12 16:50:00,
2013-02-12 09:05:00,45.4,44.0,30.34,North,360,0.0,0.0,96,0.00,,,0.00,121,weatherlink.com 1.10,2013-02-12 17:05:00,
2013-02-12 09:20:00,46.2,45.0,30.35,North,-999,0.0,0.0,95,0.00,,,0.00,299,weatherlink.com 1.10,2013-02-12 17:20:00,
2013-02-12 09:35:00,47.2,45.0,30.35,North,-999,0.0,0.0,92,0.00,,,0.00,352,weatherlink.com 1.10,2013-02-12 17:35:00,
2013-02-12 09:50:00,49.1,46.0,30.35,North,-999,0.0,0.0,90,0.00,,,0.00,431,weatherlink.com 1.10,2013-02-12 17:50:00,
2013-02-12 10:05:00,51.6,46.0,30.34,North,360,0.0,0.0,82,0.00,,,0.00,454,weatherlink.com 1.10,2013-02-12 18:05:00,
2013-02-12 10:20:00,53.2,46.0,30.34,North,-999,0.0,0.0,77,0.00,,,0.00,497,weatherlink.com 1.10,2013-02-12 18:20:00,
2013-02-12 10:35:00,53.2,45.0,30.35,North,-999,0.0,0.0,73,0.00,,,0.00,536,weatherlink.com 1.10,2013-02-12 18:35:00,
2013-02-12 10:50:00,52.7,44.0,30.35,North,-999,0.0,0.0,73,0.00,,,0.00,561,weatherlink.com 1.10,2013-02-12 18:50:00,
2013-02-12 11:05:00,53.9,44.0,30.35,North,-999,0.0,0.0,70,0.00,,,0.00,578,weatherlink.com 1.10,2013-02-12 19:05:00,
2013-02-12 11:20:00,53.9,44.0,30.35,North,-999,0.0,0.0,70,0.00,,,0.00,605,weatherlink.com 1.10,2013-02-12 19:20:00,
2013-02-12 11:36:00,54.4,44.0,30.36,North,360,0.0,0.0,67,0.00,,,0.00,617,weatherlink.com 1.10,2013-02-12 19:36:00,
2013-02-12 11:51:00,55.1,43.0,30.35,North,-999,0.0,0.0,65,0.00,,,0.00,626,weatherlink.com 1.10,2013-02-12 19:51:00,
2013-02-12 12:05:00,55.9,42.0,30.35,North,360,0.0,0.0,61,0.00,,,0.00,621,weatherlink.com 1.10,2013-02-12 20:05:00,
2013-02-12 12:20:00,56.5,42.0,30.34,North,-999,0.0,0.0,59,0.00,,,0.00,619,weatherlink.com 1.10,2013-02-12 20:20:00,
2013-02-12 12:35:00,57.2,42.0,30.34,North,360,0.0,0.0,58,0.00,,,0.00,605,weatherlink.com 1.10,2013-02-12 20:35:00,
2013-02-12 12:50:00,57.4,46.0,30.33,North,360,0.0,0.0,65,0.00,,,0.00,591,weatherlink.com 1.10,2013-02-12 20:50:00,
2013-02-12 13:05:00,55.6,44.0,30.33,North,-999,0.0,0.0,66,0.00,,,0.00,499,weatherlink.com 1.10,2013-02-12 21:05:00,
2013-02-12 13:20:00,54.2,44.0,30.33,North,360,0.0,0.0,68,0.00,,,0.00,58,weatherlink.com 1.10,2013-02-12 21:20:00,
2013-02-12 13:35:00,53.7,44.0,30.32,North,-999,0.0,0.0,70,0.00,,,0.00,46,weatherlink.com 1.10,2013-02-12 21:35:00,
2013-02-12 13:50:00,53.0,45.0,30.32,North,-999,0.0,0.0,73,0.00,,,0.00,44,weatherlink.com 1.10,2013-02-12 21:50:00,
2013-02-12 14:05:00,52.6,45.0,30.32,North,-999,0.0,0.0,75,0.00,,,0.00,40,weatherlink.com 1.10,2013-02-12 22:05:00,
2013-02-12 14:20:00,52.2,45.0,30.32,North,-999,0.0,0.0,76,0.00,,,0.00,37,weatherlink.com 1.10,2013-02-12 22:20:00,
2013-02-12 14:35:00,51.5,45.0,30.32,North,360,0.0,0.0,77,0.00,,,0.00,37,weatherlink.com 1.10,2013-02-12 22:35:00,
2013-02-12 14:50:00,50.3,44.0,30.32,North,-999,0.0,0.0,80,0.00,,,0.00,40,weatherlink.com 1.10,2013-02-12 22:50:00,
2013-02-12 15:05:00,49.7,44.0,30.32,North,360,0.0,0.0,82,0.00,,,0.00,33,weatherlink.com 1.10,2013-02-12 23:05:00,
2013-02-12 15:20:00,49.6,45.0,30.32,North,-999,0.0,0.0,83,0.00,,,0.00,32,weatherlink.com 1.10,2013-02-12 23:20:00,
2013-02-12 15:35:00,49.4,44.0,30.31,North,-999,0.0,0.0,83,0.00,,,0.00,32,weatherlink.com 1.10,2013-02-12 23:35:00,
2013-02-12 15:50:00,49.2,44.0,30.31,North,-999,0.0,0.0,83,0.00,,,0.00,28,weatherlink.com 1.10,2013-02-12 23:50:00,
2013-02-12 16:05:00,49.0,44.0,30.31,North,360,0.0,0.0,84,0.00,,,0.00,26,weatherlink.com 1.10,2013-02-13 00:05:00,
2013-02-12 16:20:00,48.8,45.0,30.31,North,360,0.0,0.0,85,0.00,,,0.00,23,weatherlink.com 1.10,2013-02-13 00:20:00,
2013-02-12 16:36:00,48.4,44.0,30.31,North,-999,0.0,0.0,86,0.00,,,0.00,21,weatherlink.com 1.10,2013-02-13 00:36:00,
2013-02-12 16:51:00,48.1,44.0,30.30,North,360,0.0,0.0,87,0.00,,,0.00,18,weatherlink.com 1.10,2013-02-13 00:51:00,
2013-02-12 17:06:00,47.8,45.0,30.30,North,-999,0.0,0.0,88,0.00,,,0.00,14,weatherlink.com 1.10,2013-02-13 01:06:00,
2013-02-12 17:21:00,47.4,44.0,30.31,North,-999,0.0,0.0,89,0.00,,,0.00,11,weatherlink.com 1.10,2013-02-13 01:21:00,
2013-02-12 17:36:00,47.0,44.0,30.31,North,-999,0.0,0.0,90,0.00,,,0.00,5,weatherlink.com 1.10,2013-02-13 01:36:00,
2013-02-12 17:51:00,46.7,44.0,30.31,North,360,0.0,0.0,91,0.00,,,0.00,0,weatherlink.com 1.10,2013-02-13 01:51:00,
2013-02-12 18:06:00,46.6,44.0,30.31,North,360,0.0,0.0,91,0.00,,,0.00,0,weatherlink.com 1.10,2013-02-13 02:06:00,
2013-02-12 18:21:00,46.5,44.0,30.31,North,-999,0.0,0.0,92,0.00,,,0.00,0,weatherlink.com 1.10,2013-02-13 02:21:00,
2013-02-12 18:36:00,46.2,44.0,30.31,North,360,0.0,0.0,92,0.00,,,0.00,0,weatherlink.com 1.10,2013-02-13 02:36:00,
2013-02-12 18:51:00,45.9,44.0,30.31,North,-999,0.0,0.0,92,0.00,,,0.00,0,weatherlink.com 1.10,2013-02-13 02:51:00,
2013-02-12 19:06:00,45.7,44.0,30.31,North,-999,0.0,0.0,93,0.00,,,0.00,0,weatherlink.com 1.10,2013-02-13 03:06:00,
2013-02-12 19:21:00,45.5,44.0,30.31,North,-999,0.0,0.0,93,0.00,,,0.00,0,weatherlink.com 1.10,2013-02-13 03:21:00,
2013-02-12 19:36:00,45.3,43.0,30.31,North,360,0.0,0.0,93,0.00,,,0.00,0,weatherlink.com 1.10,2013-02-13 03:36:00,
2013-02-12 19:51:00,45.1,43.0,30.31,North,360,0.0,0.0,93,0.00,,,0.00,0,weatherlink.com 1.10,2013-02-13 03:51:00,
2013-02-12 20:06:00,45.3,43.0,30.31,North,-999,0.0,0.0,92,0.00,,,0.00,0,weatherlink.com 1.10,2013-02-13 04:06:00,
2013-02-12 20:22:00,46.0,43.0,30.31,North,-999,0.0,0.0,90,0.00,,,0.00,0,weatherlink.com 1.10,2013-02-13 04:22:00,
2013-02-12 20:36:00,46.5,44.0,30.31,North,-999,0.0,0.0,90,0.00,,,0.00,0,weatherlink.com 1.10,2013-02-13 04:36:00,
2013-02-12 20:51:00,46.9,44.0,30.32,North,-999,0.0,0.0,90,0.00,,,0.00,0,weatherlink.com 1.10,2013-02-13 04:51:00,
2013-02-12 21:06:00,46.9,44.0,30.32,North,-999,0.0,0.0,90,0.00,,,0.00,0,weatherlink.com 1.10,2013-02-13 05:06:00,
2013-02-12 21:21:00,46.5,44.0,30.33,North,360,0.0,0.0,89,0.00,,,0.00,0,weatherlink.com 1.10,2013-02-13 05:21:00,
2013-02-12 21:36:00,46.1,44.0,30.32,North,360,0.0,0.0,91,0.00,,,0.00,0,weatherlink.com 1.10,2013-02-13 05:36:00,
2013-02-12 21:51:00,46.3,44.0,30.32,North,-999,0.0,0.0,93,0.00,,,0.00,0,weatherlink.com 1.10,2013-02-13 05:51:00,
2013-02-12 22:06:00,46.1,44.0,30.32,North,360,0.0,0.0,93,0.00,,,0.00,0,weatherlink.com 1.10,2013-02-13 06:06:00,
2013-02-12 22:21:00,46.0,44.0,30.32,North,-999,0.0,0.0,94,0.00,,,0.00,0,weatherlink.com 1.10,2013-02-13 06:21:00,
2013-02-12 22:36:00,45.8,44.0,30.32,North,-999,0.0,0.0,94,0.00,,,0.00,0,weatherlink.com 1.10,2013-02-13 06:36:00,
2013-02-12 22:51:00,45.7,44.0,30.32,North,-999,0.0,0.0,94,0.00,,,0.00,0,weatherlink.com 1.10,2013-02-13 06:51:00,
2013-02-12 23:06:00,45.6,44.0,30.33,North,360,0.0,0.0,94,0.00,,,0.00,0,weatherlink.com 1.10,2013-02-13 07:06:00,
2013-02-12 23:21:00,45.7,44.0,30.33,North,360,0.0,0.0,95,0.00,,,0.00,0,weatherlink.com 1.10,2013-02-13 07:21:00,
2013-02-12 23:36:00,45.8,45.0,30.33,North,-999,0.0,0.0,95,0.00,,,0.00,0,weatherlink.com 1.10,2013-02-13 07:36:00,
2013-02-12 23:51:00,45.9,45.0,30.33,North,360,0.0,0.0,95,0.00,,,0.00,0,weatherlink.com 1.10,2013-02-13 07:51:00,